Location: Narrabri
(30.3170°S, 149.7830°E)
Time: 08:31:23
(UTC+11:00)

Vanguard 2 - Visible Passes

Search period start: 22 October 2017 00:00
Search period end: 01 November 2017 00:00
Orbit: 554 x 2939 km, 32.9° (Epoch: 20 October)

Date Brightness Start Highest point End Pass type
(mag) Time Alt. Az. Time Alt. Az. Time Alt. Az.
22 Oct 10.7 01:40:25 36° ENE 01:40:25 36° ENE 01:48:56 10° ENE visible
22 Oct 10.1 03:41:57 48° NW 03:44:10 50° NNW 04:00:55 10° NE visible
22 Oct 11.1 05:45:25 10° W 05:55:58 20° NW 06:07:11 10° N visible
22 Oct 8.2 21:23:19 10° WNW 21:29:08 89° SSW 21:32:19 42° ESE visible
22 Oct 10.1 23:31:17 10° W 23:57:18 - E 23:33:45 25° WSW visible
23 Oct 10.7 01:58:50 35° NE 01:58:50 35° NE 02:07:19 10° ENE visible
23 Oct 10.3 04:00:23 39° NW 04:02:27 40° NNW 04:18:12 10° NNE visible
23 Oct 8.0 19:34:21 10° NW 19:38:44 44° NNE 19:45:13 10° E visible
23 Oct 8.4 21:41:29 10° W 21:47:26 79° S 21:49:35 53° ESE visible
23 Oct 10.4 23:49:30 10° WSW 00:15:46 - E 23:51:02 19° WSW visible
24 Oct 10.8 02:17:19 33° NE 02:17:19 33° NE 02:25:27 10° NE visible
24 Oct 10.5 04:18:52 30° NW 04:20:44 31° NW 04:35:02 10° NNE visible
24 Oct 7.7 19:52:10 10° WNW 19:56:43 63° NNE 20:03:44 10° ESE visible
24 Oct 8.5 21:59:40 10° W 22:05:48 75° S 22:06:45 67° SE visible
25 Oct 10.7 00:07:41 10° WSW 00:34:14 - ENE 00:08:11 13° WSW visible
25 Oct 10.9 02:35:46 30° NNE 02:35:46 30° NNE 02:43:17 10° NE visible
25 Oct 10.8 04:37:18 23° NW 04:39:02 23° NW 04:51:13 10° N visible
25 Oct 7.7 20:10:10 10° WNW 20:14:51 83° NNE 20:22:12 10° ESE visible
25 Oct 8.5 22:17:52 10° W 22:23:50 73° SSW 22:23:50 73° SSW visible
26 Oct11.000:52:38ENE00:52:38ENE00:25:16WSWvisible
26 Oct 11.0 02:54:10 25° NNE 02:54:10 25° NNE 03:00:47 10° NNE visible
26 Oct 11.1 04:55:42 16° NW 04:57:24 16° NW 05:06:16 10° N visible
26 Oct 7.8 20:28:16 10° W 20:33:04 81° S 20:39:26 14° ESE visible
26 Oct 8.8 22:36:02 10° WSW 22:40:51 58° WSW 22:40:51 58° WSW visible
27 Oct11.301:10:57ENE01:10:57ENE00:42:16WSWvisible
27 Oct 11.1 03:12:28 21° N 03:12:28 21° N 03:17:50 10° NNE visible
27 Oct 8.0 20:46:27 10° W 20:51:20 73° S 20:56:25 21° ESE visible
27 Oct 9.3 22:54:12 10° WSW 22:57:50 41° WSW 22:57:50 41° WSW visible
28 Oct 11.3 03:30:40 16° N 03:30:40 16° N 03:34:19 10° NNE visible
28 Oct 8.0 21:04:37 10° W 21:09:39 70° S 21:13:22 30° ESE visible
28 Oct 9.8 23:12:19 10° WSW 23:14:46 28° WSW 23:14:46 28° WSW visible
29 Oct 11.4 03:48:43 11° N 03:48:43 11° N 03:49:52 10° N visible
29 Oct 8.0 21:22:48 10° WSW 21:27:57 72° S 21:30:18 43° ESE visible
29 Oct 10.3 23:30:29 10° WSW 23:31:43 18° W 23:31:43 18° W visible
30 Oct 8.0 21:40:56 10° WSW 21:46:13 79° S 21:47:13 65° ESE visible
31 Oct 7.6 19:51:23 10° W 19:55:34 66° S 20:01:31 10° E visible
31 Oct 8.0 21:59:03 10° WSW 22:04:09 82° W 22:04:09 82° W visible
